Regional Weather Roundup
Issued by NWS

Home | Current Version | Previous Version | Graphics & Text | Print | Product List | Glossary On
Versions: 1 2 3 4 5 6 7 8 9 10 11 12 13 14 15 16 17 18 19 20 21 22 23 24 25 26 27 28 29 30 31 32 33 34 35 36 37 38 39 40 41 42 43 44 45 46 47 48 49 50
000
ASUS43 KMKX 222321
RWRWI

WISCONSIN REGIONAL WEATHER ROUNDUP
NATIONAL WEATHER SERVICE MILWAUKEE/SULLIVAN WI
600 PM CDT FRI JUL 22 2016

NOTE: "FAIR" INDICATES FEW OR NO CLOUDS BELOW 12,000 FEET WITH NO
SIGNIFICANT WEATHER AND/OR OBSTRUCTIONS TO VISIBILITY.

WIZ001-002-006>008-014>016-023>028-230000-
NORTHWEST WISCONSIN

CITY           SKY/WX    TMP DP  RH WIND       PRES   REMARKS
SUPERIOR ARPT  SUNNY     88  61  40 NW8       29.96R HX  88
ASHLAND        SUNNY     90  63  40 W7        29.96F HX  91
HAYWARD        MOSUNNY   88  66  48 VRB6      30.00F HX  90
SIREN          SUNNY     90  63  40 NW6       30.01S HX  90
CUMBERLAND     SUNNY     86  63  45 NW6       30.02R HX  87
RICE LAKE      SUNNY     87  64  46 CALM      30.02R HX  89
CHETEK         SUNNY     90  67  46 CALM      30.00S HX  92
LADYSMITH      SUNNY     88  62  41 NW8       30.02F HX  88
EAU CLAIRE     SUNNY     92  63  38 NE5       29.97F HX  93
MENOMONIE      SUNNY     96  60  30 CALM      29.98F HX  96
NEW RICHMOND   SUNNY     91  58  33 N6        30.00S HX  90
OSCEOLA        SUNNY     90  58  34 NW3       30.02S HX  89
$$

WIZ003>005-009-010-017-018-230000-
NORTH CENTRAL WISCONSIN

CITY           SKY/WX    TMP DP  RH WIND       PRES   REMARKS
MANITOWISH WTR MOSUNNY   86  61  42 W10G16    30.01S HX  86
ARBOR VITAE    SUNNY     86  59  38 NW10      30.01F HX  86
WOODRUFF       SUNNY     86  59  38 NW10      30.01F HX  86
RHINELANDER    SUNNY     89  62  40 NW7       30.01S HX  89
EAGLE RIVER    SUNNY     86  51  29 NW10      30.01R HX  84
LAND O LAKES   SUNNY     87  55  33 NW8       30.02S HX  85
PHILLIPS       SUNNY     86  65  49 W7        30.00F HX  88
TOMAHAWK       SUNNY     87  62  42 W8        30.01S HX  87
MEDFORD        SUNNY     86  67  53 NW6       30.01S HX  89
MERRILL        SUNNY     89  66  46 NW5       30.00S HX  91
$$

WIZ029-030-035-036-043>047-230000-
CENTRAL WISCONSIN

CITY           SKY/WX    TMP DP  RH WIND       PRES   REMARKS
WAUSAU         SUNNY     90  64  42 W9        29.97S HX  91
MOSINEE        SUNNY     88  61  40 NW6       30.01S HX  88
MARSHFIELD     SUNNY     89  65  44 NW5       30.00S HX  91
STEVENS POINT  SUNNY     87  65  47 W6        29.99S HX  89
WAUPACA        SUNNY     93  62  34 W5        29.96S HX  93
WAUTOMA        SUNNY     91  66  43 W6        29.97S HX  93
WISC RAPIDS    SUNNY     92  55  28 N8        29.99S HX  90
CAMP DOUGLAS   SUNNY     91  77  64 CALM      29.97S HX 103
$$

WIZ011>013-019>022-031-037>040-048>050-230000-
NORTHEAST WISCONSIN

CITY           SKY/WX    TMP DP  RH WIND       PRES   REMARKS
ANTIGO         SUNNY     87  64  46 CALM      30.00S HX  88
SHAWANO        SUNNY     92  63  38 W6        29.94F HX  92
OCONTO         SUNNY     90  70  51 SW8       29.92S HX  95
STURGEON BAY   SUNNY     89  68  49 SW8       29.94F HX  93
GREEN BAY      SUNNY     89  71  55 W5        29.94F HX  95
MANITOWOC      SUNNY     82  69  64 SE6       29.96S HX  85
APPLETON       SUNNY     90  61  37 W7        29.95F HX  89
CLINTONVILLE   SUNNY     90  57  33 W6        29.95S HX  88
OSHKOSH        SUNNY     90  67  46 VRB5      29.95F HX  93
$$

WIZ032>034-041-042-053>061-230000-
SOUTHWEST WISCONSIN

CITY           SKY/WX    TMP DP  RH WIND       PRES   REMARKS
LA CROSSE      SUNNY     93  75  55 N3        29.95F HX 104
SPARTA         SUNNY     91  73  55 N5        29.97F HX  98
VIROQUA        MOSUNNY   88  78  71 W5        30.00F HX 101
BOSCOBEL       PTSUNNY   89  77  67 W3        29.97F HX 101
PRAIRIE DU CHI MOSUNNY   86  75  68 SW3       29.97S HX  95
PLATTEVILLE    SUNNY     86  79  80 SW3       30.00S HX 100
$$

WIZ056-057-062-063-064-067-068-230000-
SOUTH CENTRAL WISCONSIN

CITY           SKY/WX    TMP DP  RH WIND       PRES   REMARKS
REEDSBURG      MOSUNNY   89  79  73 SW6       29.97S HX 104
BARABOO/DELLS  MOSUNNY   89  75  64 SW5       29.98S HX  99
LONE ROCK      SUNNY     88  77  69 W3        29.97F HX 100
MINERAL POINT  PTSUNNY   88  79  74 CALM      30.01S HX 102
MADISON        MOSUNNY   89  76  65 CALM      29.97F HX 100
MIDDLETON      MOSUNNY   90  76  64 CALM      29.99F HX 101
WATERTOWN      SUNNY     88  76  69 SW3       29.97S HX  99
MONROE         PTSUNNY   86  75  70 S3        30.00S HX  95
JANESVILLE     MOSUNNY   90  73  58 W6        29.98S HX  98
$$

WIZ051-052-058>065-066-070>072-230000-
SOUTHEAST WISCONSIN

CITY           SKY/WX    TMP DP  RH WIND       PRES   REMARKS
MILWAUKEE      MOSUNNY   86  70  58 SE7       29.96S HX  90
WAUKESHA       MOSUNNY   88  70  55 NW7       29.99S HX  92
MILWAUKEE/TIMM MOSUNNY   90  66  45 CALM      29.97F HX  92
RACINE         SUNNY     87  71  58 SE7       29.98S HX  93
BURLINGTON     SUNNY     89  74  62 NW6       29.97F HX  97
KENOSHA        MOSUNNY   90  74  59 W6        29.97S HX  99
FOND DU LAC    SUNNY     89  72  56 VRB5      29.96F HX  96
SHEBOYGAN      SUNNY     89  67  47 VRB5      29.96S HX  92
WEST BEND      SUNNY     88  63  42 W5        29.98R HX  88
JUNEAU         MOSUNNY   88  73  61 SW5       29.99R HX  95
$$

LSZ147-162-230000-
LAKE SUPERIOR

STATION/POSITION TIME  TEMP    WIND        PRES    WAVE
                       AIR SEA DIR/SP/G            HT/PER
                 (UTC) (F)     (DEG/KT/KT) (MB)    (FT/S)
W MID LAKE BUOY  2250   66 57  260/  8/  8 1012.5F   1/ 4
DEVILS ISLAND    2300   80     280/ 11/ 13 1013.3F
PORT WING        2140   84     270/  9/ 12 1014.6
SAXON HARBOR     2200   85     310/  2/  4 1014.6S
$$

LMZ867-665-643>646-230000-
LAKE MICHIGAN

STATION/POSITION TIME  TEMP    WIND        PRES    WAVE
                       AIR SEA DIR/SP/G            HT/PER
                 (UTC) (F)     (DEG/KT/KT) (MB)    (FT/S)
CHAMBERS ISLAND  2240   85     190/  7/ 12 1012.5F
S GREEN BAY BUOY 2300   80 76  190/  6/  8   N/A
N MID LAKE BUOY  2250   71 69  210/ 14/ 16 1012.1F   2/ 5
NORTHPORT PIER   2200   83     140/  6/  8 1012.5F
KEWAUNEE LAKESHO 2200   72                   N/A
SHEBOYGAN LAKESH 2300   72     170/ 13/ 14 1014.5R
PORT WASHINGTON  2240   81     200/  3/  6 1015.2F
MILWAUKEE LAKESH 2310   76     170/  1/  3   N/A
S MID LAKE BUOY  2250   76 75  170/  4/  6 1014.0F   0
KENOSHA   LAKESH 2300   79     170/  7/  9 1014.2S
$$

TC  - TEMPERATURE IN CELSIUS
VSB - VISIBILITY IN STATUTE MILES
WCI - WIND CHILL INDEX
HX  - HEAT INDEX





USA.gov is the U.S. government's official web portal to all federal, state and local government web resources and services.